Location: Kellogg
(38.0159°N, 90.0546°W)
Time: 15:53:42
(UTC+00:00)

Transit 2A - Pass Details

Date: 21 September 2024
Orbit: 590 x 960 km, 66.7° (Epoch: 07 October)

Event Time Altitude Azimuth Distance (km) Brightness Sun altitude
Rises 22:43:39 0° 207° (SSW) 3,376 9.9 13.7°
Reaches altitude 10° 22:46:01 10° 208° (SSW) 2,495 9.3 13.3°
Maximum altitude 22:51:53 87° 298° (WNW) 922 6.7 12.1°
Drops below altitude 10° 22:58:12 10° 28° (NNE) 2,680 8.5 10.9°
Sets 23:00:49 0° 28° (NNE) 3,643 9.1 10.4°
